Weather History for KUNI - March, 2014

Change the Weather History Date:

Tuesday, March 25, 2014

  Actual Average (KPKB) Record (KPKB)
Temperature  
Mean Temperature 30 °F 47 °F  
Max Temperature 37 °F 58 °F 89 °F (1929)
Min Temperature 24 °F 36 °F 13 °F (1974)
Degree Days  
Heating Degree Days 34 18  
Month to date heating degree days 566  
Since 1 July heating degree days 4356  
Cooling Degree Days 0 0  
Month to date cooling degree days 0  
Year to date cooling degree days 0  
Moisture  
Dew Point 21 °F    
Average Humidity 70    
Maximum Humidity 88    
Minimum Humidity 46    
Precipitation  
Precipitation 0.00 in 0.13 in 0.86 in (1997)
Month to date precipitation 2.98  
Year to date precipitation 8.63  
Sea Level Pressure  
Sea Level Pressure 30.01 in    
Wind  
Wind Speed 3 mph (West)    
Max Wind Speed 18 mph    
Max Gust Speed 23 mph    
Visibility 9 miles    
Events Snow    
T = Trace of Precipitation, MM = Missing Value Source: NWS Daily Summary

Daily Weather History Graph

Daily Weather History Graph

Search for Another Location

Airport or City:

Trip Planner

Search our weather history database for the weather conditions in past years. The results will help you decide how hot, cold, wet, or windy it might be!

Date:

Astronomy

Mar. 25, 2014 Rise Set
Actual Time 7:24 AM EDT 7:45 PM EDT
Civil Twilight 6:57 AM EDT 8:12 PM EDT
Nautical Twilight 6:26 AM EDT 8:44 PM EDT
Astronomical Twilight 5:54 AM EDT 9:16 PM EDT
Moon 3:43 AM EDT (3/25) 2:17 PM EDT (3/25)
Length of Visible Light 13h 15m
Length of Day
12h 21m
Waning Crescent, 32% of the Moon is Illuminated
Mar 25
Waning Crescent
Mar 30
New
Apr 7
First Quarter
Apr 15
Full
Apr 22
Last Quarter

Hourly Weather History & Observations

Time (EDT) Temp. Windchill Dew Point Humidity Pressure Visibility Wind Dir Wind Speed Gust Speed Precip Events Conditions
12:15 AM 29.7 °F - 16.7 °F 59% 30.10 in 10.0 mi Calm Calm - N/A   Overcast
12:35 AM 29.8 °F - 17.1 °F 59% 30.09 in 10.0 mi Calm Calm - N/A   Overcast
12:55 AM 29.3 °F - 17.1 °F 60% 30.09 in 10.0 mi Calm Calm - N/A   Overcast
1:15 AM 29.3 °F - 15.6 °F 57% 30.08 in 10.0 mi Calm Calm - N/A   Mostly Cloudy
1:35 AM 29.1 °F - 17.2 °F 61% 30.06 in 10.0 mi Calm Calm - N/A   Overcast
1:55 AM 29.3 °F - 17.6 °F 62% 30.07 in 10.0 mi Calm Calm - N/A   Overcast
2:15 AM 29.3 °F - 19.2 °F 66% 30.06 in 10.0 mi Calm Calm - N/A   Overcast
2:35 AM 29.3 °F - 18.7 °F 65% 30.06 in 10.0 mi Calm Calm - N/A   Overcast
2:55 AM 29.5 °F - 17.2 °F 60% 30.06 in 10.0 mi Calm Calm - N/A   Overcast
3:15 AM 29.5 °F - 19.9 °F 68% 30.06 in 10.0 mi Calm Calm - N/A   Overcast
3:35 AM 30.7 °F 24.9 °F 12.4 °F 47% 30.04 in 10.0 mi SSE 5.8 mph - N/A   Overcast
3:55 AM 31.5 °F 25.8 °F 12.9 °F 46% 30.04 in 10.0 mi SSE 5.8 mph - N/A   Overcast
4:15 AM 31.1 °F 27.7 °F 18.0 °F 58% 30.03 in 10.0 mi South 3.5 mph - N/A   Overcast
4:35 AM 30.7 °F 27.3 °F 18.9 °F 61% 30.02 in 10.0 mi South 3.5 mph - N/A   Overcast
4:55 AM 30.6 °F 27.1 °F 19.2 °F 63% 30.02 in 10.0 mi South 3.5 mph - N/A   Overcast
5:15 AM 30.4 °F 25.6 °F 19.4 °F 64% 30.01 in 10.0 mi SSE 4.6 mph - N/A   Overcast
5:35 AM 30.0 °F 24.1 °F 20.1 °F 67% 30.01 in 10.0 mi South 5.8 mph - N/A   Overcast
5:55 AM 29.7 °F 24.7 °F 20.5 °F 69% 30.00 in 10.0 mi South 4.6 mph - N/A   Overcast
6:15 AM 29.3 °F 25.6 °F 20.8 °F 71% 29.99 in 10.0 mi SSE 3.5 mph - N/A   Overcast
6:35 AM 28.9 °F - 21.2 °F 73% 29.99 in 10.0 mi Calm Calm - N/A   Overcast
6:55 AM 28.6 °F 24.8 °F 22.1 °F 77% 29.99 in 10.0 mi SSE 3.5 mph - N/A   Overcast
7:15 AM 28.4 °F 23.3 °F 22.8 °F 80% 30.00 in 10.0 mi South 4.6 mph - N/A   Overcast
7:35 AM 28.4 °F - 23.7 °F 83% 29.99 in 7.0 mi Calm Calm - N/A Snow Light Snow
7:55 AM 28.4 °F - 24.4 °F 85% 30.00 in 5.0 mi Calm Calm - N/A   Overcast
8:15 AM 28.4 °F 24.6 °F 24.8 °F 86% 30.00 in 1.8 mi South 3.5 mph - N/A   Overcast
8:35 AM 28.4 °F - 25.3 °F 88% 29.99 in 1.5 mi Calm Calm - N/A Snow Light Snow
8:55 AM 28.4 °F 23.3 °F 25.2 °F 88% 29.99 in 2.0 mi South 4.6 mph - N/A Snow Light Snow
9:15 AM 29.1 °F 25.4 °F 25.5 °F 86% 29.99 in 5.0 mi South 3.5 mph - N/A   Overcast
9:35 AM 29.3 °F - 25.5 °F 86% 29.99 in 7.0 mi Calm Calm - N/A   Overcast
9:55 AM 29.8 °F - 24.4 °F 80% 29.99 in 10.0 mi Calm Calm - N/A   Overcast
10:15 AM 29.8 °F - 24.4 °F 80% 29.99 in 5.0 mi Calm Calm - N/A   Light Freezing Rain
10:35 AM 30.6 °F 27.1 °F 24.3 °F 77% 29.98 in 10.0 mi SSW 3.5 mph - N/A   Overcast
10:55 AM 30.9 °F - 24.1 °F 76% 29.99 in 10.0 mi Calm Calm - N/A   Overcast
11:15 AM 31.6 °F - 22.5 °F 69% 29.99 in 10.0 mi Calm Calm - N/A   Overcast
11:35 AM 32.2 °F 28.9 °F 22.8 °F 68% 29.98 in 10.0 mi West 3.5 mph - N/A   Overcast
11:55 AM 32.7 °F - 21.9 °F 64% 29.97 in 10.0 mi Calm Calm - N/A   Overcast
12:15 PM 33.8 °F 27.7 °F 23.0 °F 65% 29.97 in 10.0 mi WNW 6.9 mph - N/A   Overcast
12:35 PM 32.7 °F 29.6 °F 23.9 °F 70% 29.97 in 7.0 mi WSW 3.5 mph - N/A   Light Drizzle
12:55 PM 33.4 °F 29.1 °F 22.5 °F 64% 29.96 in 10.0 mi West 4.6 mph - N/A   Overcast
1:15 PM 34.2 °F - 21.9 °F 61% 29.96 in 10.0 mi Calm Calm - N/A   Overcast
1:35 PM 34.5 °F - 21.7 °F 60% 29.95 in 10.0 mi Calm Calm - N/A   Overcast
1:55 PM 34.5 °F 28.6 °F 22.1 °F 61% 29.95 in 10.0 mi West 6.9 mph - N/A   Overcast
2:15 PM 34.3 °F 27.7 °F 22.6 °F 62% 29.95 in 7.0 mi West 8.1 mph - N/A Snow Light Snow
2:35 PM 34.9 °F 27.1 °F 22.6 °F 61% 29.94 in 10.0 mi WNW 10.4 mph 16.1 mph N/A   Overcast
2:55 PM 34.0 °F 28.8 °F 25.0 °F 70% 29.94 in 10.0 mi NW 5.8 mph - N/A   Overcast
3:15 PM 35.1 °F 29.3 °F 23.0 °F 61% 29.93 in 10.0 mi NNW 6.9 mph - N/A   Mostly Cloudy
3:35 PM 34.2 °F 28.2 °F 22.8 °F 63% 29.93 in 7.0 mi West 6.9 mph - N/A Snow Light Snow
3:55 PM 35.6 °F 27.5 °F 21.7 °F 57% 29.93 in 10.0 mi West 11.5 mph 17.3 mph N/A   Mostly Cloudy
4:15 PM 34.7 °F 28.1 °F 26.1 °F 71% 29.93 in 4.0 mi West 8.1 mph - N/A   Haze
4:35 PM 37.2 °F 30.0 °F 23.0 °F 56% 29.93 in 10.0 mi WSW 10.4 mph - N/A   Scattered Clouds
4:55 PM 37.4 °F 28.5 °F 19.0 °F 48% 29.92 in 10.0 mi WSW 15.0 mph 18.4 mph N/A   Mostly Cloudy
5:15 PM 35.6 °F 29.2 °F 18.5 °F 50% 29.93 in 10.0 mi NW 8.1 mph - N/A Snow Light Snow
5:35 PM 33.8 °F 26.4 °F 21.9 °F 62% 29.95 in 3.0 mi WNW 9.2 mph 21.9 mph N/A Snow Light Snow
5:55 PM 30.2 °F 20.8 °F 27.0 °F 88% 29.97 in 0.5 mi WNW 11.5 mph 17.3 mph N/A Snow Snow
6:15 PM 30.7 °F 22.0 °F 27.7 °F 88% 29.98 in 2.5 mi NW 10.4 mph - N/A Snow Light Snow
6:35 PM 30.9 °F 20.7 °F 25.5 °F 80% 29.99 in 10.0 mi NW 13.8 mph 20.7 mph N/A   Mostly Cloudy
6:55 PM 30.2 °F 21.9 °F 23.2 °F 75% 30.00 in 10.0 mi NW 9.2 mph 17.3 mph N/A   Scattered Clouds
7:15 PM 30.2 °F 24.3 °F 22.5 °F 73% 30.01 in 10.0 mi NW 5.8 mph - N/A   Clear
7:35 PM 29.7 °F 22.8 °F 21.2 °F 71% 30.02 in 10.0 mi WNW 6.9 mph - N/A   Scattered Clouds
7:55 PM 29.3 °F 22.3 °F 21.7 °F 73% 30.02 in 10.0 mi WNW 6.9 mph - N/A   Scattered Clouds
8:15 PM 29.1 °F 16.7 °F 21.9 °F 74% 30.04 in 10.0 mi NW 18.4 mph 23.0 mph N/A   Scattered Clouds
8:35 PM 28.0 °F 18.1 °F 22.6 °F 80% 30.04 in 7.0 mi WNW 11.5 mph 18.4 mph N/A Snow Light Snow
8:55 PM 27.5 °F 18.6 °F 21.7 °F 79% 30.06 in 10.0 mi WNW 9.2 mph - N/A   Mostly Cloudy
9:15 PM 27.5 °F 19.3 °F 21.0 °F 77% 30.07 in 10.0 mi West 8.1 mph - N/A   Scattered Clouds
9:35 PM 27.7 °F 20.4 °F 19.6 °F 72% 30.08 in 10.0 mi WNW 6.9 mph - N/A   Mostly Cloudy
9:55 PM 26.6 °F 20.0 °F 19.2 °F 74% 30.08 in 10.0 mi WNW 5.8 mph - N/A   Scattered Clouds
10:15 PM 26.1 °F 20.5 °F 19.4 °F 76% 30.09 in 10.0 mi West 4.6 mph - N/A   Clear
10:35 PM 25.5 °F 21.3 °F 19.4 °F 78% 30.10 in 10.0 mi West 3.5 mph - N/A   Clear
10:55 PM 24.1 °F 19.7 °F 19.2 °F 82% 30.11 in 10.0 mi West 3.5 mph - N/A   Scattered Clouds
11:15 PM 25.0 °F 16.3 °F 18.7 °F 77% 30.11 in 10.0 mi West 8.1 mph - N/A   Scattered Clouds
11:35 PM 25.7 °F 17.1 °F 17.4 °F 71% 30.11 in 10.0 mi WNW 8.1 mph - N/A   Scattered Clouds
11:55 PM 25.5 °F 16.2 °F 17.6 °F 72% 30.12 in 10.0 mi West 9.2 mph - N/A   Scattered Clouds